Weather History for Kalmar, Sweden

Change the Weather History Date:

Saturday, June 29, 2013

  Actual Average Record
Temperature  
Mean Temperature 54 °F -  
Max Temperature 64 °F - - ()
Min Temperature 44 °F - - ()
Degree Days  
Heating Degree Days 11    
Growing Degree Days 4 (Base 50)    
Moisture  
Dew Point 53 °F    
Average Humidity 85    
Maximum Humidity 100    
Minimum Humidity 68    
Precipitation  
Precipitation 0.00 in - - ()
Sea Level Pressure  
Sea Level Pressure 29.89 in    
Wind  
Wind Speed 8 mph ()    
Max Wind Speed 18 mph    
Max Gust Speed -    
Visibility 6.2 miles    
Events Rain    
T = Trace of Precipitation, MM = Missing Value Source: Averaged Metar Reports

Daily Weather History Graph

Daily Weather History Graph

Search for Another Location

Airport:

Trip Planner

Search our weather history database for the weather conditions in past years. The results will help you decide how hot, cold, wet, or windy it might be!

Date:

Astronomy

Jun. 29, 2013 Rise Set
Actual Time 4:05 AM CEST 9:50 PM CEST
Civil Twilight 3:00 AM CEST 10:55 PM CEST
Nautical Twilight 1:30 AM CEST 12:25 AM CEST
Astronomical Twilight Sun does not rise Sun does not rise
Moon No Moon Rise 12:29 PM CEST (6/29)
Length of Visible Light 19h 55m
Length of Day
17h 44m
Waning Gibbous, 58% of the Moon is Illuminated
Jun 29
Waning Gibbous
Jun 30
Last Quarter
Jul 8
New
Jul 16
First Quarter
Jul 22
Full

Hourly Weather History & Observations

Time (CEST) Temp. Windchill Dew Point Humidity Pressure Visibility Wind Dir Wind Speed Gust Speed Precip Events Conditions
12:20 AM 48.2 °F - 48.2 °F 100% 30.01 in 6.2 mi SSE 5.8 mph - N/A   Unknown
12:50 AM 48.2 °F - 46.4 °F 93% 30.01 in 6.2 mi SE 5.8 mph - N/A   Unknown
1:20 AM 48.2 °F - 48.2 °F 100% 30.01 in 6.2 mi SSE 5.8 mph - N/A   Unknown
1:50 AM 46.4 °F 44.3 °F 44.6 °F 93% 30.01 in 6.2 mi SE 4.6 mph - N/A   Unknown
2:20 AM 46.4 °F - 44.6 °F 93% 29.98 in 6.2 mi Variable 1.2 mph - N/A   Unknown
2:50 AM 46.4 °F 45.2 °F 44.6 °F 93% 29.98 in 5.0 mi ESE 3.5 mph - N/A   Mist
3:20 AM 46.4 °F 45.2 °F 46.4 °F 100% 29.98 in 6.2 mi SE 3.5 mph - N/A   Unknown
3:50 AM 44.6 °F 42.2 °F 44.6 °F 100% 29.95 in 6.2 mi ESE 4.6 mph - N/A   Partly Cloudy
4:20 AM 48.2 °F - 48.2 °F 100% 29.95 in 6.2 mi SE 5.8 mph - N/A   Mostly Cloudy
4:50 AM 50.0 °F - 50.0 °F 100% 29.95 in 6.2 mi ESE 5.8 mph - N/A   Mostly Cloudy
5:20 AM 57.2 °F - 53.6 °F 88% 29.95 in 6.2 mi SE 6.9 mph - N/A   Scattered Clouds
5:50 AM 57.2 °F - 55.4 °F 94% 29.92 in 6.2 mi SE 8.1 mph - N/A   Partly Cloudy
6:20 AM 59.0 °F - 55.4 °F 88% 29.92 in 6.2 mi SE 9.2 mph - N/A   Unknown
6:50 AM 59.0 °F - 55.4 °F 88% 29.92 in 6.2 mi SE 9.2 mph - N/A   Partly Cloudy
7:20 AM 59.0 °F - 57.2 °F 94% 29.92 in 6.2 mi SSE 8.1 mph - N/A   Unknown
7:50 AM 60.8 °F - 57.2 °F 88% 29.92 in 6.2 mi SSE 9.2 mph - N/A   Mostly Cloudy
8:20 AM 60.8 °F - 55.4 °F 82% 29.89 in 6.2 mi South 9.2 mph - N/A   Partly Cloudy
8:50 AM 60.8 °F - 55.4 °F 82% 29.89 in 6.2 mi South 9.2 mph - N/A   Scattered Clouds
9:20 AM 60.8 °F - 53.6 °F 77% 29.89 in 6.2 mi South 9.2 mph - N/A   Scattered Clouds
9:50 AM 60.8 °F - 55.4 °F 82% 29.89 in 6.2 mi South 10.4 mph - N/A   Partly Cloudy
10:20 AM 62.6 °F - 55.4 °F 77% 29.89 in 6.2 mi South 11.5 mph - N/A   Partly Cloudy
10:50 AM 62.6 °F - 55.4 °F 77% 29.89 in 6.2 mi South 13.8 mph - N/A   Scattered Clouds
11:20 AM 62.6 °F - 55.4 °F 77% 29.86 in 6.2 mi South 16.1 mph - N/A   Partly Cloudy
11:50 AM 64.4 °F - 53.6 °F 68% 29.86 in 6.2 mi South 17.3 mph - N/A   Unknown
12:20 PM 62.6 °F - 53.6 °F 72% 29.86 in 6.2 mi South 16.1 mph - N/A   Scattered Clouds
12:50 PM 62.6 °F - 53.6 °F 72% 29.86 in 6.2 mi South 17.3 mph - N/A   Scattered Clouds
1:20 PM 60.8 °F - 53.6 °F 77% 29.86 in 6.2 mi South 16.1 mph - N/A   Scattered Clouds
1:50 PM 60.8 °F - 53.6 °F 77% 29.86 in 6.2 mi South 15.0 mph - N/A   Mostly Cloudy
2:20 PM 62.6 °F - 53.6 °F 72% 29.86 in 6.2 mi South 18.4 mph - N/A   Scattered Clouds
2:50 PM 62.6 °F - 53.6 °F 72% 29.86 in 6.2 mi South 18.4 mph - N/A   Partly Cloudy
3:20 PM 62.6 °F - 53.6 °F 72% 29.86 in 6.2 mi South 18.4 mph - N/A   Unknown
3:50 PM 62.6 °F - 53.6 °F 72% 29.86 in - South 17.3 mph - N/A   Clear
4:20 PM 60.8 °F - 55.4 °F 82% 29.86 in 6.2 mi South 17.3 mph - N/A   Partly Cloudy
4:50 PM 60.8 °F - 53.6 °F 77% 29.86 in - South 16.1 mph - N/A   Clear
5:20 PM 60.8 °F - 55.4 °F 82% 29.83 in 6.2 mi South 13.8 mph - N/A   Scattered Clouds
5:50 PM 62.6 °F - 55.4 °F 77% 29.83 in 6.2 mi South 12.7 mph - N/A   Scattered Clouds
6:20 PM 62.6 °F - 53.6 °F 72% 29.83 in 6.2 mi South 13.8 mph - N/A   Scattered Clouds
6:50 PM 60.8 °F - 53.6 °F 77% 29.83 in 6.2 mi South 12.7 mph - N/A   Scattered Clouds
7:20 PM 60.8 °F - 53.6 °F 77% 29.83 in 6.2 mi South 9.2 mph - N/A   Mostly Cloudy
7:50 PM 60.8 °F - 55.4 °F 82% 29.83 in 6.2 mi South 11.5 mph - N/A   Mostly Cloudy
8:20 PM 60.8 °F - 55.4 °F 82% 29.83 in 6.2 mi South 8.1 mph - N/A Rain Light Rain
8:50 PM 55.4 °F - 51.8 °F 88% 29.83 in 6.2 mi West 9.2 mph - N/A Rain Light Rain
9:20 PM 53.6 °F - 51.8 °F 94% 29.83 in 6.2 mi West 5.8 mph - N/A Rain Light Rain
9:50 PM 53.6 °F - 53.6 °F 100% 29.86 in 6.2 mi WSW 3.5 mph - N/A   Light Drizzle
10:20 PM 53.6 °F - 53.6 °F 100% 29.86 in 6.2 mi WSW 3.5 mph - N/A Rain Light Rain
10:50 PM 53.6 °F - 53.6 °F 100% 29.86 in 6.2 mi South 4.6 mph - N/A   Scattered Clouds
11:20 PM 53.6 °F - 51.8 °F 94% 29.86 in 6.2 mi South 2.3 mph - N/A   Scattered Clouds
11:50 PM 53.6 °F - 51.8 °F 94% 29.86 in 6.2 mi SSW 3.5 mph - N/A   Mostly Cloudy